Tracking 17939 objects as of 25-February-2017
HD Live streaming from Space Station
objects crossing your sky now

INSAT 1C

Track INSAT 1C now!
INSAT 1C is classified as:


NORAD ID: 19330
Int'l Code: 1988-063A
Perigee: 35,769.7 km
Apogee: 35,800.8 km
Inclination: 14.9 °
Period: 1,435.7 minutes
Semi major axis: 42156 km
RCS: 1.9952 m2 (large)
Launch date: July 21, 1988
Source: India (IND)
Launch site: FRENCH GUIANA (FRGUI)
Your satellite tracking list
Your tracking list is empty





NASA's NSSDC Master Catalog

Two Line Element Set (TLE):
1 19330U 88063A   17054.84547603 -.00000242 +00000-0 +00000-0 0  9994
2 19330 014.9410 357.3729 0003687 024.1745 165.8114 01.00302166086245
Source of the keplerian elements: AFSPC